Regional Weather Roundup
Issued by NWS State College, PA

Home | Current Version | Previous Version | Graphics & Text | Print | Product List | Glossary On
Versions: 1 2 3 4 5 6 7 8 9 10 11 12 13 14 15 16 17 18 19 20 21 22 23 24 25 26 27 28 29 30 31 32 33 34 35 36 37 38 39 40 41 42 43 44 45 46 47 48 49 50
081
ASUS41 KCTP 310610
RWRCTP

REGIONAL WEATHER ROUNDUP
NATIONAL WEATHER SERVICE STATE COLLEGE PA
200 AM EDT SUN JUL 31 2016

Note: "fair" indicates few or no clouds below 12,000 feet with no
significant weather and/or obstructions to visibility.

* = STATION THAT DOES NOT REPORT PRECIPITATION /E.G. RAIN...SNOW...ETC/
    THUNDER OR FOG.

PAZ002>004-007>009-013>016-020>023-029>032-310700-
WESTERN PENNSYLVANIA

CITY           SKY/WX    TMP DP  RH WIND       PRES   REMARKS
ERIE           CLOUDY    71  66  84 SE5       29.96F
MEADVILLE      CLEAR     66  64  93 CALM      29.99F
FRANKLIN*      CLOUDY    64  63  94 CALM      30.01F VSB<1/4
NEW CASTLE     FOG       69  68  96 CALM      29.98F VSB 1/4
BEAVER COUNTY  NOT AVBL
BUTLER*        CLOUDY    70  66  88 CALM      30.00F
PITTSBURGH INT MOCLDY    67  65  93 CALM      29.97F
PITTSBURGH     CLEAR     69  66  90 CALM      29.96F
INDIANA*       MOCLDY    68  68 100 CALM      30.01F FOG
LATROBE        CLOUDY    68  68 100 CALM      29.99S FOG
WASHINGTON CO* CLOUDY    64  63  94 CALM      29.99S VSB 1/4
$$

PAZ004>006-010>012-017>019-024>028-033>037-041-042-045-046-049>053-310700-
CENTRAL PENNSYLVANIA

CITY           SKY/WX    TMP DP  RH WIND       PRES   REMARKS
BRADFORD       CLOUDY    66  63  90 CALM      30.04F
DUBOIS         CLOUDY    67  64  90 E5        30.01F
CLEARFIELD     NOT AVBL
JOHNSTOWN      CLOUDY    68  64  87 SW5       30.03F
ALTOONA        FOG       69  69 100 CALM      30.00F VSB 3/4
STATE COLLEGE  CLOUDY    69  68  98 CALM      29.99F FOG
WILLIAMSPORT   LGT RAIN  72  67  84 E7        29.96F
SELINSGROVE    CLOUDY    72  70  93 S3        29.98F
FT INDIANTOWN  CLOUDY    70  70 100 NE1       29.98F FOG
CAPITAL CITY   CLOUDY    73  69  87 SE7       29.96F
HARRISBURG     CLOUDY    72  70  93 SE6       29.96F
YORK           CLOUDY    71  70  96 CALM      29.97F
$$

PAZ038>040-043-044-047-048-054-055-060>062-067>071-310700-
EASTERN PENNSYLVANIA

CITY           SKY/WX    TMP DP  RH WIND       PRES   REMARKS
SCRANTON       MOCLDY    69  67  93 CALM      30.01F
MOUNT POCONO   CLOUDY    66  66 100 VRB6      30.06S FOG
ALLENTOWN      CLOUDY    72  70  93 NE7       29.99F
QUAKERTOWN*    CLOUDY    73  73 100 CALM      30.00F
READING        CLOUDY    72  69  90 W3        29.97F
LANCASTER      CLOUDY    70  70 100 SE3       29.98F
COATESVILLE    CLOUDY    72  72 100 CALM      30.00F FOG
POTTSTOWN      CLOUDY    73  72  96 CALM      29.99F FOG
BLUE BELL      CLOUDY    72  72 100 E3        29.97F
DOYLESTOWN     CLOUDY    72  72 100 VRB3      29.99F
WILLOW GROVE   NOT AVBL
NORTH PHILA    CLOUDY    76  74  93 SE8       29.99F
PHILADELPHIA   CLOUDY    76  73  91 E7        29.97F
$$




USA.gov is the U.S. government's official web portal to all federal, state and local government web resources and services.